User: anonymous   Login
Location: Caltech
(34.1382°N, 118.1253°W)
Time: 19:53:09
(UTC-07:00)
Language:

Iridium 14 - Orbit

View from above orbital plane
View from above orbital plane
View from above satellite
View from above satellite

Ground track
Ground track

The orbit data is extracted from the following two-line orbital elements,

1 25777U 99032A   18169.36514086  .00000170  00000-0  53775-4 0  9998
2 25777  86.3973  70.9257 0002055  84.7007 275.4423 14.34222241  7171
Epoch (UTC): 18 June 2018 08:45:48
Eccentricity: 0.0002055
inclination: 86.3973°
perigee height: 776 km
apogee height: 779 km
right ascension of ascending node: 70.9257°
argument of perigee: 84.7007°
revolutions per day: 14.34222241
mean anomaly at epoch: 275.4423°
orbit number at epoch: 717

The dashed part of the orbit path shows where the satellite is in the earth's shadow,  

DLR